Back to catalog

SL-8 R/B

AlivePO
NORAD 25893·ROCKET BODY·🇷🇺 Russia

Launched Aug 26, 1999 from Plesetsk Cosmodrome

Loading…

Next Passes (next 24 hours)

TLE

FreshSource: Space-Track

Epoch: Sep 14, 2026, 14:55 UTC

1 25893U 99045B   26257.62158812 -.00000003  00000-0 -18588-4 0  9998
2 25893  82.9272  30.7115 0028890  15.2938 355.3013 13.76854032359209

Track SL-8 R/B in real time with AllMySat

Download on the App Store